Regional Weather Roundup
Issued by NWS

Home | Current Version | Previous Version | Graphics & Text | Print | Product List | Glossary On
Versions: 1 2 3 4 5 6 7 8 9 10 11 12 13 14 15 16 17 18 19 20 21 22 23 24 25 26 27 28 29 30 31 32 33 34 35 36 37 38 39 40 41 42 43 44 45 46 47 48 49 50
000
ASUS43 KDMX 081901
RWRIA

WEATHER ROUNDUP FOR IOWA
NATIONAL WEATHER SERVICE DES MOINES IA
100 PM CST THU DEC 08 2016

NOTE: "FAIR" INDICATES FEW OR NO CLOUDS BELOW 12,000 FEET WITH NO
SIGNIFICANT WEATHER AND/OR OBSTRUCTIONS TO VISIBILITY.

* - THESE STATIONS ARE NOT NWS STATIONS...THUS NOT UNDER NWS
QUALITY CONTROL.  THEY ALSO DO NOT REPORT WEATHER SUCH
AS PRECIPITATION OR FOG.

IAZ001>003-012>014-020>022-031>034-043>046-082000-
   NORTHWEST IOWA

CITY           SKY/WX    TMP DP  RH WIND       PRES   REMARKS
CARROLL *      SUNNY     21  10  63 NW22G29   30.51F WCI   5
CHEROKEE *     SUNNY     20   9  60 NW12G24   30.53F WCI   8
DENISON *      SUNNY     21   9  58 W16G23    30.53F WCI   7
LE MARS *      SUNNY     19   7  58 NW21G28   30.57F WCI   3
ORANGE CITY *  SUNNY     19   9  63 NW25      30.53S WCI   2
SHELDON *      PTSUNNY   19  10  68 NW20G30   30.50F WCI   4
SIOUX CITY     SUNNY     21   6  52 NW20      30.58F WCI   6
SPENCER        MOSUNNY   20   9  62 NW25G33   30.49F WCI   2
STORM LAKE *   SUNNY     19   9  63 NW23G30   30.49F WCI   2
$$

IAZ055>058-069>071-079>083-090>094-082000-
   SOUTHWEST IOWA

CITY           SKY/WX    TMP DP  RH WIND       PRES   REMARKS
ATLANTIC *     SUNNY     21   9  58 NW18G24   30.55F WCI   6
AUDUBON *      SUNNY     19   9  63 NW16G23   30.51F WCI   5
CLARINDA *     MOSUNNY   23  10  58 NW15      30.60F WCI  10
COUNCIL BLFS * SUNNY     21   9  58 NW12G25   30.58S WCI   9
CRESTON *      MOSUNNY   21   9  58 NW21      30.53F WCI   6
HARLAN  *      SUNNY     21   9  58 NW18G26   30.59F WCI   6
LAMONI         SUNNY     22   9  57 NW21G26   30.52F WCI   6
RED OAK *      MOSUNNY   23  10  58 NW17G23   30.58F WCI   9
SHENANDOAH *   SUNNY     23   9  54 NW14G23   30.61F WCI  11
$$

IAZ047>049-059>061-072>074-084-082000-
   CENTRAL IOWA

CITY           SKY/WX    TMP DP  RH WIND       PRES   REMARKS
AMES           CLOUDY    21  12  68 NW18      30.49S WCI   6
ANKENY *       CLOUDY    23  10  58 NW20G26   30.51F WCI   8
BOONE *        CLOUDY    21  10  63 NW22      30.47S WCI   5
CHARITON *     PTSUNNY   21   9  58 NW18G28   30.50F WCI   6
DES MOINES     PTSUNNY   22   9  57 NW21G29   30.50F WCI   6
GRINNELL*      FLURRIES  19  11  72 W18G24    30.47S WCI   4
KNOXVILLE *    CLOUDY    21   7  53 W20       30.49S WCI   6
MARSHALLTOWN   FLURRIES  20  11  68 NW23G31   30.45F WCI   3
NEWTON *       CLOUDY    19  10  68 NW17      30.47F WCI   4
PELLA *        CLOUDY    21  10  61 NW14G21   30.51S WCI   8
PERRY *          N/A     22  13  69 W20G28    30.52S WCI   7
$$

IAZ004>006-015-016-023>025-035-036-082000-
   NORTH CENTRAL IOWA

CITY           SKY/WX    TMP DP  RH WIND       PRES   REMARKS
ALGONA *       CLOUDY    23  12  63 NW17G28   30.45S WCI   9
CLARION *      CLOUDY    21  12  68 NW22G29   30.45F WCI   5
ESTHERVILLE    MOSUNNY   21  11  65 NW22      30.46S WCI   5
FORT DODGE *   CLOUDY    21  10  63 NW12G22   30.49S WCI   9
MASON CITY     FLURRIES  20  12  71 NW18      30.43R WCI   5
WEBSTER CITY * CLOUDY    21  12  68 NW24      30.45S WCI   4
IOWA FALLS *   FLURRIES  21  13  73 NW24      30.45S WCI   4
$$

IAZ007>011-017>019-026>030-037>042-050>054-066-082000-
   NORTHEAST IOWA

CITY           SKY/WX    TMP DP  RH WIND       PRES   REMARKS
CEDAR RAPIDS   CLOUDY    19  14  81 W24       30.42R WCI   2
CHARLES CITY * FLURRIES  21  14  73 NW22      30.39S WCI   5
CLINTON *      FLURRIES  21  16  81 W21G29    30.38S WCI   5
DECORAH *      LGT SNOW  21  16  79 NW14G20   30.33S WCI   8
DUBUQUE        FLURRIES  19  14  81 NW17      30.34S WCI   4
MONTICELLO *   FLURRIES  21  14  73 NW22      30.38S WCI   5
OELWEIN *      FLURRIES  21  16  79 NW18      30.38S WCI   6
WATERLOO       FLURRIES  21  13  71 NW14G22   30.42R WCI   8
$$

IAZ064-065-067-068-078-082000-
   EAST CENTRAL IOWA

CITY           SKY/WX    TMP DP  RH WIND       PRES   REMARKS
DAVENPORT      FLURRIES  20  13  74 W24       30.40S WCI   3
IOWA CITY      FLURRIES  21  11  65 W17G26    30.47R WCI   7
MUSCATINE *    CLOUDY    23  12  63 W20G29    30.46F WCI   8
QUAD CITIES    FLURRIES  21  11  65 W21G28    30.41F WCI   5
$$

IAZ062-063-075>077-085>089-095>099-082000-
   SOUTHEAST IOWA

CITY           SKY/WX    TMP DP  RH WIND       PRES   REMARKS
BURLINGTON     CLOUDY    20  10  65 NW16G24   30.46F WCI   6
FAIRFIELD *    CLOUDY    19   9  63 NW20G26   30.47F WCI   4
FORT MADISON * CLOUDY    21  10  63 W18G26    30.47F WCI   6
KEOKUK *       CLOUDY    23  10  58 W20       30.47F WCI   8
OSKALOOSA *    CLOUDY    20  11  66 NW21      30.49F WCI   4
CENTERVILLE *    N/A     23  10  58 W16G22    30.51S WCI  10
OTTUMWA        CLOUDY    22   8  55 NW20G25   30.49S WCI   7
WASHINGTON *   FLURRIES  19  12  73 W23       30.48S WCI   2
$$

ABBREVIATIONS USED IN REMARKS
   TC - TEMPERATURES IN CELSIUS
  WCI - WIND CHILL INDEX
   HX - HEAT INDEX
  VSB - VISIBILITY
$$




USA.gov is the U.S. government's official web portal to all federal, state and local government web resources and services.